Location: Newark
(52.3500°N, 175.9667°E)
Time: 21:54:56
(UTC+00:00)

Altair - Pass Details

Date: 28 April 2021
Orbit: 1501 x 1683 km, 47.2° (Epoch: 05 May)

Event Time Altitude Azimuth Distance (km) Brightness Sun altitude
Rises 19:34:06 0° 273° (W) 4,872 9.5 23.6°
Reaches altitude 10° 19:37:19 10° 270° (W) 3,863 9.1 24.1°
Maximum altitude 19:46:54 61° 194° (SSW) 1,762 8.2 25.6°
Drops below altitude 10° 19:56:06 10° 117° (ESE) 3,716 11.1 26.9°
Sets 19:59:08 0° 114° (ESE) 4,678 11.3 27.4°
